WA9NNN-10 Weather Reports


Display with metric or nautical units.
time (UTC)temp
F
wind
direction
speed
MPH
gust
MPH
rain 1hr
in
rain 24hr
in
rain mn
in
humidity
%
barometer
mb
20260905171330 79 41 4.0 5.0 0.00 0.00 0.00 80 1015.3
20260905170831 79 39 10.0 5.0 0.00 0.00 0.00 79 1015.3
20260905170331 80 57 3.0 5.0 0.00 0.00 0.00 78 1015.4
20260905165831 80 331 10.0 5.0 0.00 0.00 0.00 78 1015.5
20260905165331 80 316 8.0 6.0 0.00 0.00 0.00 78 1015.4
20260905164831 80 12 5.0 6.0 0.00 0.00 0.00 77 1015.4
20260905164331 81 360 7.0 5.0 0.00 0.00 0.00 76 1015.4
20260905163831 81 54 2.0 5.0 0.00 0.00 0.00 76 1015.3
20260905163330 82 68 8.0 4.0 0.00 0.00 0.00 76 1015.3
20260905162831 82 7 3.0 4.0 0.00 0.00 0.00 75 1015.4
20260905162331 82 44 3.0 4.0 0.00 0.00 0.00 76 1015.4
20260905161831 82 328 3.0 4.0 0.00 0.00 0.00 76 1015.3
20260905161330 81 45 3.0 4.0 0.00 0.00 0.00 77 1015.2
20260905160831 81 72 2.0 4.0 0.00 0.00 0.00 77 1015.3
20260905160330 81 44 7.0 4.0 0.00 0.00 0.00 77 1015.2
20260905155831 81 58 3.0 4.0 0.00 0.00 0.00 76 1015.2
20260905155330 81 356 2.0 5.0 0.00 0.00 0.00 76 1015.1
20260905154831 81 359 4.0 5.0 0.00 0.00 0.00 76 1015.1
20260905154330 82 66 5.0 5.0 0.00 0.00 0.00 76 1015.1
20260905153831 82 11 5.0 5.0 0.00 0.00 0.00 76 1015.0
20260905153330 82 58 11.0 4.0 0.00 0.00 0.00 76 1014.9
20260905152831 82 72 3.0 4.0 0.00 0.00 0.00 76 1014.9
20260905152330 82 360 5.0 4.0 0.00 0.00 0.00 77 1015.0
20260905151831 82 37 4.0 4.0 0.00 0.00 0.00 77 1014.9
20260905151331 81 13 4.0 4.0 0.00 0.00 0.00 77 1014.8
20260905150831 81 17 2.0 4.0 0.00 0.00 0.00 77 1014.8
20260905150330 81 359 6.0 4.0 0.00 0.00 0.00 77 1014.8
20260905145831 81 30 2.0 4.0 0.00 0.00 0.00 77 1014.8
20260905145330 81 73 5.0 3.0 0.00 0.00 0.00 77 1014.8
20260905144831 81 356 3.0 3.0 0.00 0.00 0.00 78 1014.6
20260905144331 81 68 4.0 3.0 0.00 0.00 0.00 79 1014.7
20260905143831 80 3 3.0 4.0 0.00 0.00 0.00 80 1014.6
20260905143330 80 0 0.0 4.0 0.00 0.00 0.00 81 1014.6
20260905142830 80 38 2.0 3.0 0.00 0.00 0.00 82 1014.6
20260905142330 79 56 3.0 3.0 0.00 0.00 0.00 82 1014.5
20260905141831 79 359 1.0 4.0 0.00 0.00 0.00 83 1014.5
20260905141330 79 338 4.0 4.0 0.00 0.00 0.00 84 1014.5
20260905140830 79 38 5.0 4.0 0.00 0.00 0.00 85 1014.4
20260905140330 79 30 4.0 4.0 0.00 0.00 0.00 86 1014.4
20260905135831 78 1 3.0 3.0 0.00 0.00 0.00 87 1014.4
20260905135330 78 36 2.0 3.0 0.00 0.00 0.00 88 1014.5
20260905134831 77 56 1.0 3.0 0.00 0.00 0.00 89 1014.5
20260905134330 77 1 4.0 3.0 0.00 0.00 0.00 90 1014.6
20260905133832 77 41 2.0 3.0 0.00 0.00 0.00 91 1014.6
20260905133330 76 0 0.0 3.0 0.00 0.00 0.00 91 1014.8
20260905132831 76 39 1.0 3.0 0.00 0.00 0.00 91 1014.9
20260905132331 76 337 5.0 3.0 0.00 0.00 0.00 92 1014.6
20260905131830 76 37 2.0 4.0 0.00 0.00 0.00 92 1014.4
20260905131330 76 1 2.0 3.0 0.00 0.00 0.00 92 1014.4
20260905130830 75 12 2.0 3.0 0.00 0.00 0.00 92 1014.4
20260905130330 75 58 5.0 3.0 0.00 0.00 0.00 92 1014.3
20260905125831 75 12 1.0 3.0 0.00 0.00 0.00 93 1014.2
20260905125330 75 1 5.0 3.0 0.00 0.00 0.00 92 1014.1
20260905124831 75 309 4.0 2.0 0.00 0.00 0.00 92 1014.0
20260905124330 75 68 1.0 2.0 0.00 0.00 0.00 92 1014.0
20260905123830 75 339 2.0 3.0 0.00 0.00 0.00 92 1014.0
20260905123330 74 319 3.0 3.0 0.00 0.00 0.00 92 1013.8
20260905122832 74 358 3.0 2.0 0.00 0.00 0.00 92 1013.7
20260905122330 74 318 2.0 2.0 0.00 0.00 0.00 92 1013.7
20260905121830 74 311 2.0 2.0 0.00 0.00 0.00 92 1013.7
20260905121330 74 316 4.0 3.0 0.00 0.00 0.00 92 1013.6
20260905120831 74 352 1.0 2.0 0.00 0.00 0.00 92 1013.7
20260905120330 74 360 2.0 2.0 0.00 0.00 0.00 92 1013.5
20260905115831 74 311 2.0 2.0 0.00 0.00 0.00 91 1013.3
20260905115330 74 339 2.0 2.0 0.00 0.00 0.00 91 1013.2
20260905114831 74 44 3.0 2.0 0.00 0.00 0.00 91 1013.2
20260905114330 74 65 1.0 2.0 0.00 0.00 0.00 91 1013.1
20260905113832 74 1 2.0 3.0 0.00 0.00 0.00 91 1013.0
20260905113331 75 39 2.0 3.0 0.00 0.00 0.00 90 1012.9
20260905112831 75 359 4.0 3.0 0.00 0.00 0.00 90 1012.8
20260905112331 75 74 4.0 2.0 0.00 0.00 0.00 90 1012.8
20260905111830 75 25 1.0 2.0 0.00 0.00 0.00 90 1012.7
20260905111330 75 342 2.0 2.0 0.00 0.00 0.00 90 1012.7
20260905110830 75 359 3.0 1.0 0.00 0.00 0.00 89 1012.6
20260905110330 75 347 2.0 1.0 0.00 0.00 0.00 89 1012.5
20260905105830 75 27 1.0 1.0 0.00 0.00 0.00 89 1012.6
20260905105331 75 36 2.0 1.0 0.00 0.00 0.00 89 1012.7
20260905104830 76 83 2.0 2.0 0.00 0.00 0.00 89 1012.7
20260905104330 76 49 1.0 2.0 0.00 0.00 0.00 89 1012.7
20260905103830 76 66 2.0 2.0 0.00 0.00 0.00 88 1012.7
20260905103330 76 5 2.0 2.0 0.00 0.00 0.00 88 1012.8
20260905102831 76 10 2.0 2.0 0.00 0.00 0.00 88 1012.9
20260905102330 76 336 4.0 2.0 0.00 0.00 0.00 88 1012.8
20260905101831 77 348 4.0 2.0 0.00 0.00 0.00 88 1012.8
20260905101330 77 341 4.0 2.0 0.00 0.00 0.00 87 1012.8
20260905100830 77 344 3.0 2.0 0.00 0.00 0.00 87 1012.7
20260905100330 77 0 0.0 3.0 0.00 0.00 0.00 87 1012.6
20260905095830 77 24 1.0 3.0 0.00 0.00 0.00 87 1012.6
20260905095331 78 326 5.0 2.0 0.00 0.00 0.00 87 1012.6
20260905094831 78 70 2.0 2.0 0.00 0.00 0.00 87 1012.7
20260905094331 78 355 3.0 1.0 0.00 0.00 0.00 87 1012.6
20260905093832 78 53 2.0 1.0 0.00 0.00 0.00 87 1012.6
20260905093331 78 64 4.0 1.0 0.00 0.00 0.00 87 1012.5
20260905092832 78 357 1.0 0.0 0.00 0.00 0.00 87 1012.4
20260905092331 78 357 1.0 0.0 0.00 0.00 0.00 87 1012.3
20260905091832 78 0 0.0 0.0 0.00 0.00 0.00 87 1012.2
20260905091331 78 0 0.0 0.0 0.00 0.00 0.00 87 1012.1
20260905090831 78 0 0.0 0.0 0.00 0.00 0.00 87 1012.2
20260905090331 79 0 0.0 0.0 0.00 0.00 0.00 87 1012.3
20260905085832 79 0 0.0 1.0 0.00 0.00 0.00 87 1012.4
20260905085331 79 0 0.0 1.0 0.00 0.00 0.00 87 1012.4
20260905084832 79 0 0.0 1.0 0.00 0.00 0.00 87 1012.3
20260905084331 79 354 1.0 1.0 0.00 0.00 0.00 87 1012.4
20260905083831 79 0 0.0 0.0 0.00 0.00 0.00 87 1012.3
20260905083331 79 0 0.0 1.0 0.00 0.00 0.00 86 1012.3
20260905082831 79 0 0.0 1.0 0.00 0.00 0.00 86 1012.2
20260905082331 79 336 3.0 0.0 0.00 0.00 0.00 86 1012.3
20260905081831 79 0 0.0 0.0 0.00 0.00 0.00 86 1012.1
20260905081331 79 0 0.0 0.0 0.00 0.00 0.00 86 1012.0
20260905080832 79 0 0.0 0.0 0.00 0.00 0.00 86 1012.0
20260905080330 79 0 0.0 1.0 0.00 0.00 0.00 86 1012.1
20260905075831 79 336 1.0 0.0 0.00 0.00 0.00 86 1012.2
20260905075331 79 336 2.0 0.0 0.00 0.00 0.00 86 1012.3
20260905074831 80 0 0.0 1.0 0.00 0.00 0.00 85 1012.3
20260905074330 80 328 1.0 1.0 0.00 0.00 0.00 85 1012.2
20260905073832 80 328 1.0 2.0 0.00 0.00 0.00 85 1012.2
20260905073331 80 351 2.0 1.0 0.00 0.00 0.00 85 1012.2
20260905072831 80 352 2.0 1.0 0.00 0.00 0.00 84 1012.2
20260905072331 80 307 2.0 0.0 0.00 0.00 0.00 84 1012.1
20260905071831 80 307 1.0 0.0 0.00 0.00 0.00 84 1012.2
20260905071331 80 0 0.0 0.0 0.00 0.00 0.00 84 1012.2
20260905070831 80 307 1.0 0.0 0.00 0.00 0.00 83 1012.1
20260905070331 80 15 1.0 0.0 0.00 0.00 0.00 83 1012.1
20260905065331 80 0 0.0 0.0 0.00 0.00 0.00 83 1012.2
20260905064831 80 0 0.0 0.0 0.00 0.00 0.00 82 1012.2
20260905064331 81 15 1.0 0.0 0.00 0.00 0.00 82 1012.3
20260905063832 81 0 0.0 0.0 0.00 0.00 0.00 82 1012.3
20260905063331 81 0 0.0 0.0 0.00 0.00 0.00 82 1012.5
20260905062831 81 0 0.0 0.0 0.00 0.00 0.00 82 1012.4
20260905062331 81 0 0.0 0.0 0.00 0.00 0.00 82 1012.4
20260905061831 81 0 0.0 0.0 0.00 0.00 0.00 82 1012.4
20260905061331 81 0 0.0 0.0 0.00 0.00 0.00 82 1012.7
20260905060831 81 15 2.0 0.0 0.00 0.00 0.00 82 1012.7
20260905060331 81 0 0.0 0.0 0.00 0.00 0.00 82 1012.7
20260905055831 81 0 0.0 1.0 0.00 0.00 0.00 82 1012.8
20260905055331 81 15 1.0 1.0 0.00 0.00 0.00 82 1012.8
20260905054831 81 0 0.0 1.0 0.00 0.00 0.00 82 1012.8
20260905054331 81 0 0.0 1.0 0.00 0.00 0.00 82 1012.7
20260905053831 81 0 0.0 1.0 0.00 0.00 0.00 82 1012.8
20260905053331 81 0 0.0 0.0 0.00 0.00 0.00 82 1012.8
20260905052832 81 0 0.0 0.0 0.00 0.00 0.00 82 1012.7
20260905052330 81 0 0.0 0.0 0.00 0.00 0.00 82 1012.7
20260905051832 81 0 0.0 0.0 0.00 0.00 0.00 82 1012.7
20260905051331 81 0 0.0 0.0 0.00 0.00 0.00 82 1012.6
20260905050831 81 0 0.0 0.0 0.00 0.00 0.00 82 1012.5
20260905050331 81 335 2.0 0.0 0.00 0.00 0.00 82 1012.6
20260905045831 81 0 0.0 0.0 0.00 0.00 0.00 82 1012.6
20260905045330 81 0 0.0 0.0 0.00 0.00 0.00 82 1012.6
20260905044831 81 0 0.0 1.0 0.00 0.00 0.00 82 1012.7
20260905044331 81 0 0.0 1.0 0.00 0.00 0.00 82 1012.4
20260905043831 81 58 3.0 0.0 0.00 0.00 0.00 82 1012.4
20260905043330 81 0 0.0 0.0 0.00 0.00 0.00 81 1012.6
20260905042831 81 0 0.0 1.0 0.00 0.00 0.00 81 1012.8
20260905042330 81 79 1.0 1.0 0.00 0.00 0.00 81 1012.7
20260905041831 81 61 1.0 1.0 0.00 0.00 0.00 81 1013.0
20260905041331 81 71 2.0 1.0 0.00 0.00 0.00 81 1013.0
20260905040831 82 0 0.0 2.0 0.00 0.00 0.00 80 1013.2
20260905040330 82 0 0.0 3.0 0.00 0.00 0.00 80 1013.2
20260905035831 82 351 5.0 4.0 0.00 0.00 0.00 80 1013.3
20260905035332 82 63 5.0 3.0 0.00 0.00 0.00 79 1013.1
20260905034831 82 5 7.0 2.0 0.00 0.00 0.00 79 1013.0
20260905034332 82 0 0.0 2.0 0.00 0.00 0.00 78 1012.7
20260905033831 82 310 4.0 0.0 0.00 0.00 0.00 78 1012.7
20260905033331 82 0 0.0 0.0 0.00 0.00 0.00 78 1012.6
20260905032831 82 354 2.0 0.0 0.00 0.00 0.00 78 1012.9
20260905032331 82 0 0.0 0.0 0.00 0.00 0.00 78 1012.9
20260905031831 82 0 0.0 0.0 0.00 0.00 0.00 77 1013.0
20260905031330 83 0 0.0 0.0 0.00 0.00 0.00 77 1013.1
20260905030831 83 0 0.0 1.0 0.00 0.00 0.00 77 1013.0
20260905030330 83 0 0.0 2.0 0.00 0.00 0.00 77 1013.1
20260905025832 83 46 2.0 2.0 0.00 0.00 0.00 77 1013.3
20260905025331 83 78 1.0 1.0 0.00 0.00 0.00 77 1013.5
20260905024831 83 0 0.0 1.0 0.00 0.00 0.00 76 1013.4
20260905024330 83 57 3.0 1.0 0.00 0.00 0.00 76 1013.3
20260905023831 84 342 1.0 1.0 0.00 0.00 0.00 75 1013.4
20260905023330 84 85 1.0 3.0 0.00 0.00 0.00 75 1013.4
20260905022831 84 15 1.0 3.0 0.00 0.00 0.00 74 1013.3
20260905022331 84 67 4.0 2.0 0.00 0.00 0.00 73 1013.4
20260905021832 85 50 2.0 2.0 0.00 0.00 0.00 72 1013.4
20260905021330 85 359 2.0 2.0 0.00 0.00 0.00 72 1013.4
20260905020831 86 28 2.0 2.0 0.00 0.00 0.00 71 1013.3
20260905020330 86 70 2.0 2.0 0.00 0.00 0.00 70 1013.3
20260905015831 87 26 2.0 2.0 0.00 0.00 0.00 69 1013.3
20260905015331 87 74 3.0 3.0 0.00 0.00 0.00 69 1013.2
20260905014831 87 21 1.0 4.0 0.00 0.00 0.00 68 1013.3
20260905014330 88 342 3.0 3.0 0.00 0.00 0.00 67 1013.3
20260905013831 89 96 4.0 1.0 0.00 0.00 0.00 67 1013.1
20260905013331 89 0 0.0 0.0 0.00 0.00 0.00 68 1012.9
20260905012831 89 0 0.0 0.0 0.00 0.00 0.00 68 1012.7
20260905012330 89 0 0.0 0.0 0.00 0.00 0.00 68 1012.5
20260905011831 89 0 0.0 0.0 0.00 0.00 0.00 68 1012.3
20260905011330 89 0 0.0 0.0 0.00 0.00 0.00 68 1012.3
20260905010831 90 0 0.0 1.0 0.00 0.00 0.00 67 1012.2
20260905010331 90 218 3.0 1.0 0.00 0.00 0.00 67 1012.1
20260905005831 90 0 0.0 0.0 0.00 0.00 0.00 67 1012.2
20260905005331 90 0 0.0 1.0 0.00 0.00 0.00 67 1012.1
20260905004831 90 0 0.0 2.0 0.00 0.00 0.00 66 1011.9
20260905004330 90 0 0.0 3.0 0.00 0.00 0.00 66 1012.0
20260905003830 90 223 4.0 3.0 0.00 0.00 0.00 66 1012.0
20260905003330 90 199 3.0 2.0 0.00 0.00 0.00 66 1011.9
20260905002831 90 218 2.0 2.0 0.00 0.00 0.00 65 1011.9
20260905002330 90 205 2.0 3.0 0.00 0.00 0.00 65 1011.8
20260905001831 91 210 5.0 3.0 0.00 0.00 0.00 65 1011.8
20260905001331 91 224 3.0 2.0 0.00 0.00 0.00 64 1011.9
20260905000831 91 210 2.0 2.0 0.00 0.00 0.00 64 1011.8
20260905000332 91 217 2.0 3.0 0.00 0.00 0.00 64 1011.8
20260904235831 91 214 5.0 3.0 0.00 0.00 0.00 63 1011.8
20260904235330 92 213 4.0 4.0 0.00 0.00 0.00 63 1011.6
20260904234831 92 214 3.0 4.0 0.00 0.00 0.00 62 1011.6
20260904234330 92 238 4.0 4.0 0.00 0.00 0.00 62 1011.6
20260904233831 92 207 4.0 4.0 0.00 0.00 0.00 61 1011.6
20260904233330 93 224 7.0 3.0 0.00 0.00 0.00 60 1011.5
20260904232831 93 173 2.0 4.0 0.00 0.00 0.00 60 1011.7
20260904232331 93 226 4.0 3.0 0.00 0.00 0.00 60 1011.7
20260904231831 93 216 2.0 2.0 0.00 0.00 0.00 60 1011.7
20260904231330 93 216 3.0 3.0 0.00 0.00 0.00 59 1011.8
20260904230831 93 229 1.0 4.0 0.00 0.00 0.00 58 1011.8
20260904230331 93 213 4.0 4.0 0.00 0.00 0.00 58 1011.8
20260904225832 94 205 2.0 3.0 0.00 0.00 0.00 58 1011.8
20260904225331 94 226 8.0 3.0 0.00 0.00 0.00 58 1011.8
20260904224831 94 205 2.0 2.0 0.00 0.00 0.00 57 1011.8
20260904224330 94 271 1.0 3.0 0.00 0.00 0.00 57 1011.7
20260904223831 94 168 1.0 4.0 0.00 0.00 0.00 57 1011.7
20260904223330 94 150 2.0 4.0 0.00 0.00 0.00 57 1011.8
20260904222831 95 219 4.0 3.0 0.00 0.00 0.00 57 1011.8
20260904222330 95 275 1.0 3.0 0.00 0.00 0.00 57 1011.7
20260904221830 95 239 6.0 4.0 0.00 0.00 0.00 57 1011.8
20260904221330 94 213 1.0 3.0 0.00 0.00 0.00 58 1011.6
20260904220831 94 217 10.0 4.0 0.00 0.00 0.00 58 1011.6
20260904220330 94 165 3.0 5.0 0.00 0.00 0.00 58 1011.7
20260904215831 94 158 14.0 5.0 0.00 0.00 0.00 59 1011.8
20260904215330 94 206 4.0 5.0 0.00 0.00 0.00 58 1011.7
20260904214831 94 188 7.0 5.0 0.00 0.00 0.00 58 1011.6
20260904214330 94 226 2.0 5.0 0.00 0.00 0.00 58 1011.5
20260904213831 94 203 4.0 5.0 0.00 0.00 0.00 58 1011.5
20260904213330 94 203 4.0 6.0 0.00 0.00 0.00 58 1011.4
20260904212831 93 198 4.0 5.0 0.00 0.00 0.00 58 1011.4
20260904212330 94 206 10.0 4.0 0.00 0.00 0.00 58 1011.5
20260904211831 93 230 3.0 5.0 0.00 0.00 0.00 58 1011.5
20260904211331 93 219 3.0 6.0 0.00 0.00 0.00 58 1011.5
20260904210832 93 176 8.0 5.0 0.00 0.00 0.00 58 1011.6
20260904210330 93 160 2.0 6.0 0.00 0.00 0.00 58 1011.5
20260904205830 93 207 8.0 5.0 0.00 0.00 0.00 58 1011.6
20260904205330 93 195 4.0 5.0 0.00 0.00 0.00 58 1011.5
20260904204830 93 188 5.0 5.0 0.00 0.00 0.00 57 1011.7
20260904204331 94 221 3.0 5.0 0.00 0.00 0.00 56 1011.8
20260904203831 94 276 2.0 5.0 0.00 0.00 0.00 56 1011.8
20260904203330 94 172 6.0 4.0 0.00 0.00 0.00 55 1012.1
20260904202831 95 195 7.0 3.0 0.00 0.00 0.00 55 1012.2
20260904202330 95 219 4.0 4.0 0.00 0.00 0.00 55 1012.2
20260904201831 95 172 2.0 4.0 0.00 0.00 0.00 54 1012.3
20260904201330 95 214 3.0 5.0 0.00 0.00 0.00 54 1012.3
20260904200832 96 228 9.0 5.0 0.00 0.00 0.00 52 1012.3
20260904200330 96 189 4.0 4.0 0.00 0.00 0.00 52 1012.4
20260904195831 96 221 3.0 4.0 0.00 0.00 0.00 53 1012.6
20260904195330 96 169 3.0 4.0 0.00 0.00 0.00 53 1012.6
20260904194831 96 186 4.0 5.0 0.00 0.00 0.00 53 1012.6
20260904194330 96 220 3.0 6.0 0.00 0.00 0.00 53 1012.7
20260904193830 96 182 4.0 5.0 0.00 0.00 0.00 52 1012.7
20260904193331 97 185 8.0 3.0 0.00 0.00 0.00 52 1012.9
20260904192831 96 207 2.0 3.0 0.00 0.00 0.00 52 1012.9
20260904192330 95 201 2.0 4.0 0.00 0.00 0.00 52 1013.0
20260904191830 95 14 2.0 4.0 0.00 0.00 0.00 51 1013.1
20260904191330 95 0 0.0 4.0 0.00 0.00 0.00 52 1013.2
20260904190830 94 234 2.0 4.0 0.00 0.00 0.00 53 1013.3
20260904190330 94 172 8.0 4.0 0.00 0.00 0.00 53 1013.4
20260904185831 94 157 6.0 4.0 0.00 0.00 0.00 53 1013.4
20260904185330 93 172 2.0 3.0 0.00 0.00 0.00 54 1013.6
20260904184830 92 138 2.0 4.0 0.00 0.00 0.00 58 1013.7
20260904184330 90 195 4.0 4.0 0.00 0.00 0.00 59 1013.7
20260904183830 89 224 3.0 4.0 0.00 0.00 0.00 61 1013.7
20260904183331 87 208 2.0 4.0 0.00 0.00 0.00 64 1013.6
20260904182831 86 211 2.0 4.0 0.00 0.00 0.00 64 1013.6
20260904182332 86 262 2.0 4.0 0.00 0.00 0.00 63 1013.7
20260904181832 87 152 4.0 4.0 0.00 0.00 0.00 63 1013.8
20260904181331 87 221 3.0 4.0 0.00 0.00 0.00 62 1013.9
20260904180831 87 181 2.0 4.0 0.00 0.00 0.00 62 1014.0
20260904180331 87 147 1.0 3.0 0.00 0.00 0.00 61 1014.2
20260904175831 88 198 5.0 3.0 0.00 0.00 0.00 61 1014.4
20260904175333 89 134 3.0 4.0 0.00 0.00 0.00 61 1014.6
20260904174831 89 162 2.0 3.0 0.00 0.00 0.00 62 1015.0
20260904174331 88 117 3.0 3.0 0.00 0.00 0.00 63 1015.5
20260904173831 88 113 3.0 3.0 0.00 0.00 0.00 65 1015.7
20260904173331 87 84 4.0 4.0 0.00 0.00 0.00 66 1016.1
20260904172831 87 56 8.0 5.0 0.00 0.00 0.00 65 1016.2
20260904172331 86 92 2.0 5.0 0.00 0.00 0.00 67 1016.4
20260904171831 86 60 4.0 6.0 0.00 0.00 0.00 67 1016.1